KE2GQQ Weather Reports


time (UTC)temp
C
wind
direction
speed
KPH
gust
KPH
rain 1hr
cm
rain 24hr
cm
rain mn
cm
humidity
%
barometer
mb
20260502164017 13 219 1.6 4.8 0.00 0.03 0.03 66 1011.8
20260502163016 13 224 1.6 4.8 0.00 0.03 0.03 67 1011.7
20260502162017 13 283 1.6 6.4 0.00 0.03 0.03 68 1011.7
20260502161016 13 337 0.0 4.8 0.00 0.03 0.03 70 1011.8
20260502152017 12 225 1.6 3.2 0.00 0.03 0.03 73 1011.9
20260502151017 12 4 1.6 3.2 0.00 0.03 0.03 75 1012.0
20260502123018 10 39 0.0 3.2 0.00 0.03 0.03 87 1012.2
20260502122018 10 212 0.0 1.6 0.00 0.03 0.03 89 1012.1
20260502121018 10 79 0.0 3.2 0.00 0.03 0.03 89 1012.0
20260502115016 10 129 0.0 3.2 0.00 0.03 0.03 90 1012.1
20260502114018 10 178 0.0 3.2 0.00 0.03 0.03 91 1012.2
20260502113015 10 177 0.0 1.6 0.03 0.03 0.03 92 1012.2
20260502112015 10 254 0.0 1.6 0.03 0.03 0.03 92 1012.1
20260502111036 10 180 0.0 1.6 0.03 0.03 0.03 92 1012.0
20260502110016 10 157 0.0 1.6 0.03 0.03 0.03 91 1011.7
20260502105016 10 289 0.0 1.6 0.03 0.03 0.03 91 1011.6
20260502104016 10 164 1.6 4.8 0.03 0.03 0.03 89 1011.3
20260502103017 10 150 0.0 3.2 0.00 0.00 0.00 89 1011.7
20260502102016 10 174 0.0 3.2 0.00 0.00 0.00 88 1011.5
20260502101057 10 98 0.0 1.6 0.00 0.00 0.00 85 1011.8
20260502091018 11 185 1.6 3.2 0.00 0.00 0.00 78 1011.4
20260502071017 11 144 0.0 3.2 0.00 0.00 0.00 76 1011.4
20260502070016 11 178 1.6 3.2 0.00 0.00 0.00 76 1011.5
20260502065017 10 206 0.0 3.2 0.00 0.00 0.00 76 1011.7
20260502064017 10 198 0.0 3.2 0.00 0.00 0.00 76 1011.5
20260502063017 10 180 0.0 1.6 0.00 0.00 0.00 77 1011.6
20260502062017 10 153 0.0 1.6 0.00 0.00 0.00 79 1011.8
20260502061017 10 124 0.0 1.6 0.00 0.00 0.00 78 1011.6
20260502060037 10 114 0.0 1.6 0.00 0.00 0.00 79 1011.7
20260502055017 11 159 0.0 1.6 0.00 0.00 0.00 80 1011.8
20260502054038 11 156 1.6 3.2 0.00 0.00 0.00 79 1011.9
20260502053018 11 130 0.0 1.6 0.00 0.00 0.00 80 1011.7
20260502052018 11 78 0.0 1.6 0.00 0.00 0.00 79 1011.7
20260502051018 11 185 0.0 1.6 0.00 0.00 0.00 79 1011.7
20260502050018 11 93 0.0 3.2 0.00 0.00 0.00 79 1011.5
20260502045018 11 148 0.0 3.2 0.00 0.00 0.00 81 1011.8
20260502044015 11 155 0.0 1.6 0.00 0.00 0.00 82 1011.9
20260502043016 10 103 0.0 1.6 0.00 0.00 0.00 82 1011.9
20260502042015 10 228 0.0 1.6 0.00 0.00 0.00 81 1012.1
20260502041015 10 344 0.0 1.6 0.00 0.00 0.00 81 1012.1
20260502040016 10 119 0.0 1.6 0.00 0.00 0.00 81 1011.8
20260502035016 10 173 0.0 3.2 0.00 0.00 0.00 81 1011.8
20260502034036 10 108 0.0 1.6 0.00 0.00 0.00 81 1011.6
20260502033037 10 138 0.0 3.2 0.00 0.00 0.00 82 1011.7
20260502032016 10 35 0.0 3.2 0.00 0.00 0.00 82 1011.9
20260502031037 10 32 0.0 3.2 0.00 0.00 0.00 81 1012.1
20260502030017 10 19 0.0 3.2 0.00 0.00 0.00 81 1012.2
20260502025038 10 136 0.0 1.6 0.00 0.00 0.00 80 1012.2
20260502024017 10 195 0.0 3.2 0.00 0.00 0.00 79 1012.2
20260502023018 10 185 0.0 3.2 0.00 0.00 0.00 78 1012.2
20260502022018 11 189 1.6 3.2 0.00 0.00 0.00 77 1012.1
20260502021018 11 193 1.6 3.2 0.00 0.00 0.00 77 1012.1
20260502020018 11 195 1.6 4.8 0.00 0.00 0.00 76 1012.1
20260502015038 11 199 1.6 4.8 0.00 0.00 0.00 75 1012.1
20260502014035 11 177 1.6 4.8 0.00 0.00 0.00 73 1012.0
20260502013015 11 200 1.6 4.8 0.00 0.00 0.00 72 1011.9
20260502012016 11 176 1.6 3.2 0.00 0.00 0.00 71 1011.8
20260502011056 11 194 3.2 6.4 0.00 0.00 0.00 70 1011.7
20260502010016 11 195 1.6 4.8 0.00 0.00 0.00 69 1011.6
20260502005016 12 191 1.6 6.4 0.00 0.00 0.00 68 1011.7
20260502004017 12 186 1.6 4.8 0.00 0.00 0.00 67 1011.7
20260502003016 12 197 1.6 4.8 0.00 0.00 0.00 68 1011.6
20260502002016 12 194 3.2 8.0 0.00 0.00 0.00 67 1011.5
20260502001037 12 187 1.6 4.8 0.00 0.00 0.00 67 1011.4
20260502000017 12 189 3.2 4.8 0.00 0.00 0.00 67 1011.2
20260501235017 12 193 1.6 4.8 0.00 0.00 0.00 67 1011.2
20260501234017 12 191 1.6 4.8 0.00 0.00 0.00 66 1011.2
20260501233017 12 202 3.2 8.0 0.00 0.00 0.00 65 1011.1
20260501232017 12 189 1.6 6.4 0.00 0.00 0.00 64 1011.0
20260501231017 13 200 3.2 8.0 0.00 0.00 0.00 62 1010.8
20260501230018 13 181 3.2 8.0 0.00 0.00 0.00 61 1010.8
20260501225018 13 206 4.8 11.3 0.00 0.00 0.00 59 1010.8
20260501224018 13 199 3.2 6.4 0.00 0.00 0.00 58 1010.7
20260501223018 14 201 4.8 11.3 0.00 0.00 0.00 58 1010.7
20260501222015 14 205 4.8 8.0 0.00 0.00 0.00 57 1010.8
20260501221015 14 199 4.8 9.7 0.00 0.00 0.00 58 1010.9
20260501220035 15 201 4.8 9.7 0.00 0.00 0.00 57 1010.9
20260501215015 15 200 4.8 9.7 0.00 0.00 0.00 57 1010.9
20260501214016 15 202 4.8 11.3 0.00 0.00 0.00 55 1010.8
20260501213016 15 196 4.8 9.7 0.00 0.00 0.00 54 1010.7
20260501212016 15 204 4.8 11.3 0.00 0.00 0.00 53 1010.5
20260501211016 16 192 4.8 8.0 0.00 0.00 0.00 52 1010.5
20260501210017 16 197 4.8 9.7 0.00 0.00 0.00 51 1010.5
20260501205016 16 197 4.8 12.9 0.00 0.00 0.00 49 1010.5
20260501204017 17 197 6.4 12.9 0.00 0.00 0.00 49 1010.4
20260501203017 17 203 6.4 9.7 0.00 0.00 0.00 47 1010.3
20260501202017 18 204 3.2 11.3 0.00 0.00 0.00 46 1010.3
20260501201017 18 205 3.2 8.0 0.00 0.00 0.00 42 1010.2
20260501200017 18 201 1.6 8.0 0.00 0.00 0.00 43 1010.2
20260501195016 17 232 1.6 6.4 0.00 0.00 0.00 42 1010.3
20260501194016 17 194 3.2 6.4 0.00 0.00 0.00 41 1010.3
20260501193016 17 203 3.2 11.3 0.00 0.00 0.00 42 1010.4
20260501192016 17 203 3.2 8.0 0.00 0.00 0.00 41 1010.6
20260501191016 17 239 1.6 6.4 0.00 0.00 0.00 41 1010.8
20260501190015 17 200 3.2 9.7 0.00 0.00 0.00 41 1010.9
20260501185015 17 203 3.2 9.7 0.00 0.00 0.00 42 1011.1
20260501184017 17 190 4.8 11.3 0.00 0.00 0.00 41 1011.2
20260501183036 16 182 3.2 9.7 0.00 0.00 0.00 41 1011.4
20260501182016 16 193 3.2 9.7 0.00 0.00 0.00 42 1011.4
20260501181016 16 185 4.8 11.3 0.00 0.00 0.00 42 1011.4
20260501180016 16 190 3.2 8.0 0.00 0.00 0.00 42 1011.4
20260501175016 16 193 3.2 11.3 0.00 0.00 0.00 42 1011.5
20260501174016 16 205 1.6 8.0 0.00 0.00 0.00 42 1011.6
20260501173017 15 279 1.6 6.4 0.00 0.00 0.00 44 1011.6
20260501172017 15 251 1.6 8.0 0.00 0.00 0.00 43 1011.7